Regional Weather Roundup
Issued by NWS

Home | Current Version | Previous Version | Text Only | Print | Product List | Glossary Off
Versions: 1 2 3 4 5 6 7 8 9 10 11 12 13 14 15 16 17 18 19 20 21 22 23 24 25 26 27 28 29 30 31 32 33 34 35 36 37 38 39 40 41 42 43 44 45 46 47 48 49

000
ASUS45 KSLC 120410
RWRUT

UTAH REGIONAL WEATHER ROUNDUP
NATIONAL WEATHER SERVICE SALT LAKE CITY UT
1000 PM MDT FRI JUL 11 2014

UTZ001>011-023>025-120500-

NORTHERN UTAH

CITY           SKY/WX    TMP DP  RH WIND       PRES   REMARKS
HILL AFB       CLEAR     75  57  54 CALM      30.12R
LOGAN          CLEAR     68  56  65 SW5       30.11R
OGDEN          CLEAR     73  55  53 CALM      30.09R
PROVO AIRPORT  CLEAR     73  63  68 E3        30.11R
SALT LAKE CITY PTCLDY    77  59  53 N7        30.06S
VERNAL         PTCLDY    76  52  43 NE10      30.13R
WENDOVER       PTCLDY    81  46  30 N16G22    30.08R
HEBER CITY     CLEAR     64  55  72 CALM      30.18R
WEST JORDAN    CLEAR     79  63  57 NW8       30.11

$$

UTZ012>022-026-027-120500-

SOUTHERN UTAH

CITY           SKY/WX    TMP DP  RH WIND       PRES   REMARKS
BRYCE CANYON   CLEAR     59  48  67 NW7       30.34R
CEDAR CITY     MOCLDY    73  40  30 S6        30.18R
MILFORD        MOCLDY    76  53  44 SE6       30.11R
MOAB/CYNLANDS  CLEAR     84  48  28 NW15      30.01R
PRICE          CLEAR     73  54  51 NW6       30.18R
ST GEORGE      NOT AVBL

$$

REGIONAL REPORTS     COLORADO/ARIZONA

CITY           SKY/WX    TMP DP  RH WIND       PRES   REMARKS
CRAIG, CO      TSTM      59  59 100 NW12      30.23R
GRAND JUNCTION MOCLDY    79  50  36 SE16      30.08R
RIFLE          TSTM      66  60  81 E14       30.18R
MONTROSE       MOCLDY    77  51  40 NW5       30.19R
CORTEZ         PTCLDY    76  46  34 CALM      30.16R
PAGE, AZ       CLEAR     89  40  17 W7        30.04R
GRAND CANYON   CLEAR     62  54  74 CALM      30.26R
KINGMAN        MOCLDY    84  34  16 SW13      30.02R
FLAGSTAFF      MOCLDY    68  50  52 CALM      30.32R

$$

REGIONAL REPORTS    NEVADA/IDAHO/WYOMING

CITY           SKY/WX    TMP DP  RH WIND       PRES   REMARKS
LAS VEGAS, NV  PTCLDY    95  32  11 S13       29.86R HX  90
ELY            MOCLDY    72  51  47 S8        30.21R
ELKO           CLOUDY    73  51  46 NE9       30.13R
POCATELLO, ID  CLEAR     72  46  39 NE5       30.09R
BURLEY         MOCLDY    73  49  42 SW14      30.03R
EVANSTON, WY   MOCLDY    65  55  70 N3        30.31R
ROCK SPRINGS   CLOUDY    59  52  77 NE20      30.30R

$$


USA.gov is the U.S. government's official web portal to all federal, state and local government web resources and services.